Location: Fountain Hills
(33.6120°N, 111.7170°W)
Time: 17:06:38
(UTC-07:00)

Daily predictions for brighter satellites

Satellite Brightness Start Highest point End
(mag) Time Altitude Azimuth Time Altitude Azimuth Time Altitude Azimuth
FENGYUN 3A 4.5 19:48:52 10° S 19:54:06 55° W 19:59:22 10° NNW
Cosmos 2082 Rocket 3.9 19:53:44 10° ESE 19:55:36 12° E 19:57:29 10° ENE
ALOS 3.6 19:52:02 10° S 19:56:27 42° W 20:00:53 10° NNW
Cosmos 1536 Rocket 3.5 19:52:22 10° S 19:56:40 86° E 20:01:00 10° N
COSMOS 2406 3.5 19:53:13 10° SSW 19:58:56 76° WNW 20:04:40 10° NNE
DNEPR-1 R/B 4.3 19:56:00 10° NNW 20:00:05 40° ENE 20:04:36 10° SE
Cosmos 1743 3.2 19:56:25 10° N 20:00:10 43° E 20:03:53 10° SSE
Cosmos 1709 Rocket 4.3 19:54:00 10° N 20:00:13 74° W 20:06:19 10° S
Cosmos 1025 Rocket 4.1 20:02:19 10° SE 20:05:51 26° E 20:09:23 10° NE
USA 186 1.6 20:07:20 10° SSE 20:10:30 73° ENE 20:13:36 10° N
COSMOS 2487 4.4 20:11:33 11° ESE 20:12:51 13° E 20:14:32 10° ENE
Cosmos 405 4.4 20:10:24 10° NNE 20:13:16 22° ENE 20:15:38 12° SE
CZ-2D R/B 3.7 20:11:51 10° S 20:15:36 63° WSW 20:19:24 10° NNW
Cosmos 1666 3.0 20:13:45 10° N 20:17:21 45° E 20:20:57 10° SSE
Meteor 1-13 Rocket 4.5 20:11:53 10° S 20:17:50 82° W 20:23:44 10° N
H-2A R/B 4.5 20:15:33 10° SSW 20:18:51 31° W 20:22:10 10° NW
Cosmos 1975 4.2 20:16:23 10° NNW 20:20:13 41° W 20:24:03 10° SSW
ISS -0.6 20:19:22 10° WNW 20:21:18 15° NNW 20:23:15 10° N
ERS-1 Rocket 4.2 20:21:26 13° ESE 20:24:51 25° ENE 20:28:54 10° NNE
Cosmos 1656 Rocket 4.0 20:19:34 10° NNW 20:24:59 67° WSW 20:30:28 10° S
Cosmos 1238 Rocket 4.1 20:20:54 10° S 20:27:32 66° E 20:33:57 10° NNE
Cosmos 1833 Rocket 3.8 20:23:55 10° SSE 20:28:11 23° E 20:32:28 10° NE
Meteor 2-9 Rocket 4.4 20:23:37 10° N 20:29:03 54° E 20:34:15 12° SSE
OAO 2 Rocket 3.3 20:24:10 10° W 20:29:06 81° N 20:33:36 13° E
CENTAUR R/B 3.4 20:23:02 10° NW 20:31:07 70° WSW 20:39:28 10° SSE
Meteor 1-29 2.8 20:34:39 10° NNE 20:38:02 87° E 20:41:23 10° SSW
Cosmos 1939 Rocket 2.7 20:37:39 15° SSE 20:40:48 77° E 20:44:40 10° N
Cosmos 2074 Rocket 4.1 20:36:39 10° N 20:42:55 81° W 20:49:11 10° S
Cosmos 1437 Rocket 3.6 20:39:42 10° NNE 20:43:13 33° ENE 20:44:47 24° ESE
Aureole 3 Rocket 4.2 20:37:42 10° SSW 20:44:01 58° W 20:48:32 10° N
ASTEX 1 3.5 20:40:09 15° SSE 20:44:03 56° E 20:48:50 10° N
Cosmos 1515 4.4 20:44:16 24° SE 20:45:47 34° E 20:49:14 10° NNE
Meteor 2-4 Rocket 4.1 20:41:46 10° SSW 20:47:22 68° W 20:53:09 10° N
PSLV R/B 3.4 20:44:54 10° WNW 20:47:59 57° NNE 20:49:21 28° E
Cosmos 1610 Rocket 4.4 20:42:12 10° N 20:48:26 74° E 20:53:48 14° SSE
Cosmos 2184 Rocket 4.2 20:42:19 10° N 20:48:39 75° W 20:54:52 10° S
Resurs 01 Rocket 3.8 20:47:01 10° SSW 20:50:34 24° W 20:54:09 10° NW
Hubble Space Telescope 1.8 20:48:35 10° SW 20:52:03 26° SSE 20:52:27 25° SSE
Spot 1 4.3 20:49:43 13° S 20:53:42 69° WSW 20:57:58 10° NNW
Helios 1A 3.7 20:55:00 12° S 20:58:46 51° W 21:02:53 10° NNW
ARGOS 3.9 21:02:22 26° ESE 21:04:32 36° ENE 21:09:26 10° N
Intercosmos 24 3.5 21:01:09 10° N 21:04:44 79° E 21:06:09 35° SSE
Cosmos 1980 Rocket 4.3 21:03:14 10° NNE 21:05:24 12° NE 21:07:33 10° ENE
Tiangong 2 4.0 21:06:38 10° NW 21:08:38 15° N 21:10:38 10° NE
Cosmos 2228 3.8 21:08:27 10° NNE 21:12:18 32° E 21:12:42 31° E
Cosmos 921 Rocket 3.4 21:08:28 10° N 21:12:47 49° ENE 21:13:51 40° ESE
Cosmos 1624 Rocket 4.0 21:08:09 10° NNW 21:13:28 85° ENE 21:16:02 32° SSE
H-2A R/B 3.0 21:18:38 27° E 21:19:36 28° ENE 21:23:52 10° NNE
MetOp-B 4.2 21:17:35 35° SE 21:19:47 65° ENE 21:25:06 10° N
NOAA 11 4.1 21:17:47 33° SSE 21:20:16 73° ENE 21:25:41 10° N
SL-8 Rocket 4.3 21:20:48 10° N 21:26:52 49° E 21:28:51 37° SE
Cosmos 1892 Rocket 3.8 21:26:07 24° SSW 21:28:40 67° W 21:33:04 10° N
YAOGAN 6 3.9 21:28:48 25° SW 21:30:03 33° W 21:33:15 10° NNW
Cosmos 2154 Rocket 4.4 21:26:50 10° NNW 21:33:05 62° W 21:37:24 21° SSW
Cosmos 2056 Rocket 3.6 21:28:01 10° NNW 21:33:07 66° WSW 21:35:02 37° S
Meteor 1-4 Rocket 4.0 21:30:25 10° NNE 21:32:35 25° NE 21:32:35 25° NE
Cosmos 2366 rocket 4.5 21:28:03 10° N 21:33:46 39° E 21:34:59 36° ESE
Cosmos 1602 Rocket 4.3 21:34:30 36° ENE 21:34:30 36° ENE 21:37:55 10° NNE
Terra 3.4 21:34:23 20° ENE 21:34:27 20° ENE 21:37:51 10° NNE
Cosmos 2082 Rocket 2.4 21:33:18 10° SSW 21:38:57 73° WNW 21:44:38 10° NNE
Cosmos 1269 Rocket 4.3 21:41:28 47° E 21:41:28 47° E 21:46:26 10° NNE
Cosmos 1606 Rocket 4.4 21:39:24 10° NNW 21:43:31 45° W 21:44:53 33° SW
Cosmos 2278 3.6 21:39:51 10° NNW 21:45:34 83° WSW 21:47:06 51° S
SPOT 5 2.4 21:46:34 77° S 21:46:53 89° W 21:51:15 10° NNW
Cosmos 1048 Rocket 4.0 21:48:23 57° E 21:48:23 57° E 21:53:22 10° NNE
SL-24 DEB 4.4 21:50:58 55° SSW 21:51:47 69° W 21:56:25 10° N
Cosmos 1726 Rocket 4.4 21:48:17 10° NNW 21:52:23 43° W 21:53:21 37° SW
DMSP B5D2-2 4.1 21:47:41 10° NNE 21:52:52 56° E 21:52:52 56° E
SL-08 RB Rocket 3.5 21:54:27 84° S 21:54:35 88° W 21:59:05 10° NNW
Cosmos 1959 Rocket 4.5 21:48:44 10° N 21:55:05 71° E 21:56:29 54° SE
Cosmos 1656 3.5 21:53:42 10° NNW 21:59:12 89° ENE 21:59:55 69° SSE
Lacrosse 5 4.3 22:04:37 10° ENE 22:04:37 10° ENE 22:04:41 10° ENE
Cosmos 1697 Rocket 2.7 21:55:17 10° NNW 22:00:51 63° ENE 22:01:23 60° E
Meteor 1-22 Rocket 4.2 21:56:11 10° N 22:01:29 59° E 22:01:39 59° E
ERS-1 Rocket 4.4 22:01:26 23° SW 22:03:26 30° W 22:07:51 10° NW
Cosmos 1809 Rocket 4.3 21:58:27 10° N 22:04:33 79° E 22:05:32 63° SSE
Cosmos 1452 Rocket 3.3 21:59:40 10° NNW 22:04:57 87° WSW 22:05:20 78° S
Cosmos 2369 4.1 22:00:36 10° NNW 22:06:10 54° WSW 22:07:20 46° SSW
Timation 2 Rocket 4.1 22:04:58 25° SSW 22:08:52 74° WNW 22:15:05 10° NNE
SL-16 R/B 4.2 22:07:30 10° NNE 22:10:39 15° NE 22:11:25 15° ENE
SPOT 1/Viking Rocket 3.5 22:10:47 70° SW 22:11:11 74° WSW 22:16:21 10° NNW
Cosmos 1833 Rocket 3.9 22:06:33 10° SW 22:11:47 39° WNW 22:17:02 10° N
Cosmos 2058 Rocket 4.2 22:08:32 10° NNW 22:12:36 36° W 22:13:06 35° WSW
SL-08 R/B 4.3 22:06:55 10° N 22:13:03 86° E 22:13:55 68° SSE
OAO 2 Rocket 4.1 22:09:01 10° W 22:12:33 39° WSW 22:12:33 39° WSW
Cosmos 2218 Rocket 4.0 22:11:09 10° N 22:17:19 76° W 22:18:29 59° SSW
Meteor 2-16 Rocket 4.4 22:15:57 10° N 22:22:04 68° E 22:22:16 68° E
SL-19 R/B 4.1 22:18:37 10° NNE 22:23:18 68° NE 22:23:18 68° NE
H-2A R/B 2.9 22:25:55 47° NNE 22:25:55 47° NNE 22:29:20 10° N
Cosmos 1812 Rocket 4.4 22:27:21 10° N 22:30:39 49° NNW 22:30:39 49° NNW
Nadezhda 3 Rocket 3.9 22:38:29 82° ESE 22:38:33 83° E 22:44:56 10° N
USA 229 DEB 3.7 22:39:18 10° NNW 22:46:31 75° ENE 22:47:09 71° E
USA 229 3.7 22:39:24 10° NNW 22:46:37 75° ENE 22:47:15 70° E
CZ-4 R/B 4.5 22:43:27 10° N 22:47:29 56° N 22:47:29 56° N
Cosmos 1953 4.4 22:45:08 10° N 22:46:52 24° NNE 22:46:52 24° NNE
Cosmos 1980 Rocket 2.4 22:44:25 10° NNW 22:49:22 68° NW 22:49:22 68° NW
CZ-4B R/B 4.1 22:51:06 10° N 22:55:10 56° N 22:55:10 56° N
Cosmos 1821 Rocket 4.3 22:50:55 10° N 22:56:33 58° NE 22:56:33 58° NE
H-2A R/B 3.6 22:59:16 25° W 22:59:16 25° W 23:03:04 10° NW
Cosmos 2322 Rocket 3.2 22:56:42 10° N 23:01:16 38° NE 23:01:16 38° NE
Lacrosse 5 rocket 3.8 23:07:56 10° N 23:10:52 21° NNE 23:10:52 21° NNE
Terra 3.4 23:13:16 29° WNW 23:13:16 29° WNW 23:16:14 10° NNW
CZ-2C R/B 4.1 23:13:01 10° NNE 23:16:02 29° NE 23:16:02 29° NE
Lacrosse 5 3.5 23:43:45 32° NNW 23:43:45 32° NNW 23:47:40 10° NNE
SeaSat 1 4.1 23:50:22 30° NNE 23:50:22 30° NNE 23:53:25 10° N
CZ-2C R/B 4.1 23:55:09 45° N 23:55:09 45° N 23:59:03 10° N
ATLAS CENTAUR R/B 4.5 23:51:01 10° NNW 23:51:01 10° NNW 23:51:01 10° NNW
